Volver al catálogo

CZ-6A DEB

ActivoPO
NORAD 60690·DEBRIS·🇨🇳 China

Lanzado Aug 6, 2024 desde Taiyuan Satellite Launch Center

Loading…

Próximos Pases (próximas 24 horas)

TLE

ActualizadoSource: Space-Track

Época: Sep 14, 2026, 17:44 UTC

1 60690U 24140CT  26257.73900586  .00000147  00000-0  68014-4 0  9997
2 60690  89.0080 266.4560 0063265 265.4314  93.9645 14.14879420108368

Sigue CZ-6A DEB en tiempo real con AllMySat

Download on the App Store